sat.trackr.live / text

‹ back to catalog

LUCA (RS90S)

NORAD 67287 · 2025-313AR

PAYLOAD ACTIVE UNKNOWN

§ Identity

Operator
Country
MNE
Launch date
2025-12-28
Launch site
VOSTO
Launch vehicle
Mass (kg)
RCS (m²)

External: N2YO · Heavens-Above · Gunter

§ Orbital elements

Epoch: 2026-09-17T03:54:10.869984Z

Period
94.37 min
Inclination
97.3854°
Eccentricity
0.0010021
Mean motion
15.25898059 rev/d
Perigee alt
481.2 km
Apogee alt
495.0 km
Semi-major
6,866.2 km
B*
3.3995e-4
RAAN
333.9986°
Arg perigee
40.3505°
Mean anomaly
319.8476°
Rev number
3,999

§ Raw data

LUCA (RS90S)1 67287U 25313AR  26260.16262581  .00008656  00000+0  33995-3 0  99972 67287  97.3854 333.9986 0010021  40.3505 319.8476 15.25898059 39990

JSON: /api/v1/satellites/67287 · /tle

For live sub-satellite position, see the globe view (requires WebGL).

§ Visibility from observer

Set your observer location to see the next 7 days of passes ≥ 10°. The values pass through the URL so the page stays shareable.

No JS? Fill the form by hand. The geolocation button needs JavaScript.